Location: Sternwarte_Laufen
(47.9344°N, 12.9346°E)
Time: 15:31:22
(UTC+02:00)

ISS - Pass Details

Date: 10 May 2026
Orbit: 414 x 424 km, 51.6° (Epoch: 21 May)

Event Time Altitude Azimuth Distance (km) Brightness Sun altitude
Rises 00:53:59 0° 284° (WNW) 2,354 0.3 -24.5°
Reaches altitude 10° 00:56:09 10° 291° (WNW) 1,493 -0.7 -24.5°
Enters shadow 00:57:20 19° 301° (WNW) 1,050 -1.4 -24.5°
